www.pogodaiklimat.ru
ПОГОДА в Гуиуане
Время
(UTC), дата
12 24.05
15 24.05
18 24.05
21 24.05
00 25.05
03 25.05
06 25.05
09 25.05
12 25.05
15 25.05
18 25.05
21 25.05
00 26.05
03 26.05
06 26.05
09 26.05
12 26.05
15 26.05
18 26.05
21 26.05
00 27.05
03 27.05
06 27.05
09 27.05
12 27.05
15 27.05
18 27.05
21 27.05
00 28.05
03 28.05
06 28.05
09 28.05
12 28.05
15 28.05
18 28.05
00 29.05
03 29.05
06 29.05
09 29.05
12 29.05
15 29.05
18 29.05
21 29.05
00 30.05
03 30.05
06 30.05
09 30.05
12 30.05
15 30.05
18 30.05
00 31.05
03 31.05
06 31.05
Ветер
(напр.,м/с)
Видим. Явления Облачность Т
(С)
Тd
(С)
f
(%)
Тe
(С)
Тes
(С)
Комфортность P
(гПа)
Po
(гПа)
Тmin
(С)
Tmax
(С)
R
(мм)
R24
(мм)
S
(см)
ЮВ 1 16 км зарница {туман} 6/5 450 м
[Cb cap Ci fib]
+29.0 +27.1 90 +46 +46 опасность
перегрева
1013.2 1006.4 +36.0
ЮВ 1 16 км зарница 3/3 450 м
[Cb cap Ci fib]
+28.1 +26.0 88 +42 +42 опасность
перегрева
1014.5 1007.6
ЮВ 2 16 км 4/3 540 м
[Cu hum Ci fib]
+27.8 +25.7 88 +41 +41 опасность
перегрева
1013.4 1006.6
В 2 16 км мгла {туман} 6/3 540 м
[Cu med, cong Ac trans Cs]
+27.4 +26.4 94 +42 +42 опасность
перегрева
1013.7 1006.8
В 5 18 км мгла {туман} 8/6 450 м
[Cb cap Ci fib]
+31.0 +27.7 83 +51 +52 опасность
перегрева
1014.7 1007.9 +26.0
В 5 18 км мгла {туман} 6/6 450 м
[Cb cap Ac trans Ci fib]
+34.0 +27.7 70 +54 +58 опасность
перегрева
1013.7 1007.0
ЮВ 5 18 км мгла {туман} 6/5 540 м
[Cu med, cong Ci fib]
+33.0 +28.2 76 +54 +58 опасность
перегрева
1011.8 1005.0
В 4 18 км мгла {туман} 5/3 540 м
[Cu med, cong Ac trans Ci fib]
+30.5 +28.2 88 +51 +52 опасность
перегрева
1011.6 1004.8
В 6 16 км зарница {туман} 8/4 450 м
[Cb cap Cs]
+28.4 +27.1 93 +45 +45 опасность
перегрева
1013.1 1006.3 +35.0
В 5 16 км зарница {туман} 9/4 450 м
[Cb cap Cs]
+27.8 +26.5 93 +43 +43 опасность
перегрева
1013.9 1007.0
В 2 16 км {туман} 4/3 540 м
[Cu hum Cs]
+27.4 +25.8 91 +41 +41 опасность
перегрева
1012.9 1006.1
В 2 16 км мгла {туман} 4/3 540 м
[Cu hum Cs]
+27.0 +25.7 93 +40 +40 очень
душно
1012.6 1005.7
В 4 18 км мгла {туман} 8/5 450 м
[Cb calv Cs]
+31.0 +28.7 88 +53 +56 опасность
перегрева
1014.1 1007.3 +26.0
СВ 3 18 км мгла {туман} 5/4 450 м
[Cb calv Cs]
+33.6 +29.6 80 +59 +69 опасность
перегрева
1013.9 1007.1
В 3 20 км мгла {туман} 4/4 450 м
[Cb calv]
+33.0 +29.3 81 +58 +65 опасность
перегрева
1011.9 1005.1
В 5 18 км мгла {туман} 6/4 450 м
[Cb calv Cs]
+30.0 +28.0 89 +50 +50 опасность
перегрева
1011.4 1004.6
В 4 16 км {туман} 6/3 540 м
[Cu med, cong Ac As Cs]
+28.4 +26.8 91 +44 +44 опасность
перегрева
1012.5 1005.7 +35.0
В 5 16 км 6/3 540 м
[Cu med, cong Ac As Cs]
+27.8 +26.4 92 +42 +42 опасность
перегрева
1013.0 1006.1
В 4 16 км 6/4 450 м
[Cb calv Cs]
+27.6 +25.2 87 +40 +40 очень
душно
1011.8 1005.0
В 6 16 км осадки на расстоянии 6/4 450 м
[Cb calv Cs]
+27.4 +25.3 88 +40 +40 очень
душно
1012.4 1005.5
В 6 18 км мгла {туман} 8/4 450 м
[Cb calv Ac As Cc]
+30.4 +27.3 84 +49 +50 опасность
перегрева
1013.7 1006.9 +26.0
В 4 18 км мгла {туман} 9/5 450 м
[Cb calv Cc]
+33.1 +28.8 78 +56 +62 опасность
перегрева
1013.6 1006.8
В 6 20 км мгла {туман} 6/6 450 м
[Cb cap]
+32.8 +28.0 76 +53 +56 опасность
перегрева
1011.5 1004.7
ЮВ 4 18 км мгла {туман} 6/6 450 м
[Cb cap]
+30.2 +27.4 85 +48 +49 опасность
перегрева
1011.6 1004.8 +50.1
В 4 16 км {туман} 3/3 540 м
[Cu hum]
+28.6 +25.3 82 +42 +42 опасность
перегрева
1013.0 1006.2 +35.2
В 4 16 км 3/3 540 м
[]
+28.2 +25.3 84 +41 +41 опасность
перегрева
1013.7 1006.8
В 5 16 км зарница 5/4 450 м
[Cb cap Cs]
+27.8 +24.9 84 +40 +40 очень
душно
1012.7 1005.9
В 4 16 км осадки на расстоянии 8/5 450 м
[Cb cap Ac As]
+27.8 +25.4 87 +41 +41 опасность
перегрева
1012.8 1005.9
ЮЗ 1 18 км осадки на расстоянии {туман} 8/4 450 м
[Cb cap Ac As Cs]
+29.4 +26.8 86 +46 +50 опасность
перегрева
1014.3 1007.5 +27.2
ЮЗ 2 18 км осадки на расстоянии {туман} 9/4 450 м
[Cb cap Cs]
+29.5 +26.9 86 +46 +57 опасность
перегрева
1013.8 1007.0
ЮЗ 3 18 км мгла {туман} 9/4 540 м
[Cu med, cong Ac As Cs]
+32.7 +29.3 82 +57 +61 опасность
перегрева
1012.4 1005.6
В 2 18 км мгла {туман} 8/3 540 м
[Cu hum Ac As Cs]
+30.2 +25.6 76 +44 +45 опасность
перегрева
1011.4 1004.6
В 3 16 км {туман} 6/4 540 м
[Cu med, cong Cs]
+28.2 +25.8 87 +42 +42 опасность
перегрева
1014.0 1007.2 +34.4
ЮВ 2 16 км зарница 5/4 450 м
[Cb cap Ci fib]
+28.0 +25.4 86 +41 +41 опасность
перегрева
1014.6 1007.7
В 2 16 км 4/3 540 м
[Cu med, cong Ci fib]
+28.0 +25.1 84 +40 +40 очень
душно
1012.9 1006.1
ЮЗ 1 18 км слаб. ливневой дождь {туман} 9/5 450 м
[Cb cap Ac As Cs]
+29.3 +27.4 90 +47 +50 опасность
перегрева
1014.2 1007.4 +26.2 0.0
В 4 20 км осадки на расстоянии {туман} 6/5 450 м
[Cb cap Cs]
+34.0 +30.3 81 +62 +69 опасность
перегрева
1013.4 1006.7
СВ 4 20 км осадки на расстоянии {туман} 6/5 450 м
[Cb calv Cs]
+32.3 +26.8 73 +50 +55 опасность
перегрева
1012.2 1005.4
СВ 5 20 км осадки на расстоянии {туман} 6/5 450 м
[Cb cap Cs]
+30.5 +27.3 83 +49 +49 опасность
перегрева
1011.5 1004.7
В 5 18 км осадки на расстоянии {туман} 9/5 450 м
[Cb cap Cs]
+29.6 +27.0 86 +47 +47 опасность
перегрева
1013.9 1007.1 +36.0
В 4 16 км зарница {туман} 9/5 450 м
[Cb cap Cs]
+29.0 +26.4 86 +44 +44 опасность
перегрева
1014.9 1008.0
В 5 16 км зарница 8/4 450 м
[Cb cap Ac As Cs]
+28.0 +26.7 93 +44 +44 опасность
перегрева
1013.5 1006.7
З 5 14 км слаб. ливневой дождь 10/5 450 м
[Cb cap Ac As]
+26.5 +24.5 89 +37 +37 очень
душно
1014.6 1007.7 12
СВ 5 18 км осадки на расстоянии {ливн. осадки, туман} 6/5 450 м
[Cb cap Ac As Cs]
+28.2 +26.2 89 +43 +45 опасность
перегрева
1015.1 1008.3 +25.7 12 12.0
С 5 18 км мгла {туман} 5/4 450 м
[Cb cap Ci fib]
+30.4 +27.6 85 +49 +56 опасность
перегрева
1014.5 1007.7
СВ 7 18 км мгла {туман} 6/5 450 м
[Cb cap Cs]
+31.2 +27.1 79 +49 +51 опасность
перегрева
1012.3 1005.5
СВ 5 18 км мгла {туман} 5/4 450 м
[Cb cap Ac trans Cs]
+30.0 +27.4 86 +48 +48 опасность
перегрева
1012.4 1005.6
СВ 4 16 км зарница {туман} 5/4 450 м
[Cb cap Ac trans]
+29.2 +26.9 87 +46 +46 опасность
перегрева
1014.1 1007.3 +34.0
СВ 5 16 км зарница 5/4 450 м
[Cb cap Ac As]
+27.8 +26.1 90 +42 +42 опасность
перегрева
1014.8 1007.9
В 6 16 км зарница 9/4 450 м
[Cb cap Ac As Cs]
+27.5 +25.5 89 +40 +40 очень
душно
1013.4 1006.6
СВ 5 18 км осадки на расстоянии 5/5 450 м
[Cb cap Ci fib]
+27.4 +25.3 88 +40 +42 очень
душно
1013.7 1006.8
СВ 7 18 км осадки на расстоянии {туман} 9/8 450 м
[Cb cap Ac As Cs]
+32.7 +26.7 71 +50 +51 опасность
перегрева
1014.8 1008.0
В 6 18 км мгла {туман} 8/6 450 м
[Cb cap Ac As Cs]
+32.0 +27.8 79 +52 +54 опасность
перегрева
1012.4 1005.6
Местоположение метеостанции Гуиуан (Филиппины): широта 11.03 долгота 125.73 высота над уровнем моря 60 м.
В архиве по умолчанию представлена погода в Гуиуане за последнюю неделю. Архивные данные за месяц целиком и за предыдущие месяцы, начиная с января 2011 года, Вы можете получить, выбрав интересующий диапазон дат из раскрывающегося списка и нажав кнопку "Найти!".
*Определитесь, кто Вы:
Внимание! Время в таблицах - всемирное. Для получения местного времени необходимо прибавить поправку, которая равна 8 ч.
Смотрите также архив погоды в соседних городах и на ближайших метеорологических станциях:
Партнеры нашего сайта:      
Пояснения к столбцам:
  • Ветер - указаны скорость ветра в м/с - средняя за 10 мин, порывы в срок и между сроками (в фигурных скобках) и направление, откуда дует ветер: С - северный,
  • СВ - северо-восточный, В - восточный, ЮВ - юго-восточный, Ю - южный, ЮЗ - юго-западный, З - западный, СЗ - северо-западный.
  • Видимость - горизонтальная дальность видимости в метрах или километрах. При видимости от 1 до 10 км при отсутствии осадков обычно наблюдается дымка, при ухудшении видимости до 1 км и менее - туман. В сухую погоду видимость может ухудшаться дымом, пылью или мглою.
  • Явления - указаны атмосферные явления, наблюдавшиеся в срок или в последний час перед сроком; фигурными скобками обозначены явления, наблюдавшиеся между сроками (за 1-3 часа до срока); квадратными скобками обозначены град или гололедные отложения с указанием их диаметра в мм.
  • Облачность - указаны через наклонную черту общая и нижняя облачность в баллах и высота нижней границы облаков в метрах; квадратными скобками обозначены формы облаков: Ci - перистые, Cs - перисто-слоистые, Cc - перисто-кучевые, Ac - высококучевые, As - высокослоистые, Sc - слоисто-кучевые, Ns - слоисто-дождевые, Cu - кучевые, Cb - кучево-дождевые. Подробнее классификацию облаков см. в Атласе облаков (PDF).
  • T - Температура воздуха - температура, измеренная на высоте 2 м над землей.
  • Td - Температура точки росы - температура, при понижении до которой содержащийся в воздухе водяной пар достигнет насыщения.
  • f - Относительная влажность воздуха - влажноcть воздуха, измеренная на высоте 2 м над землей.
  • Te - Эффективная температура - температура, которую ощущает одетый по сезону человек в тени. Характеристика душности погоды. При расчете учитывается влияние влажности воздуха и скорости ветра на теплоощущения человека.
  • Tes - Эффективная температура на солнце - температура, которую ощущает человек, с поправкой на солнечный нагрев. Характеристика знойности погоды. Зависит от высоты солнца над горизонтом, облачности и скорости ветра. Ночью, в пасмурную погоду, а также при ветре 12 м/с и более поправка равна нулю.
  • P - Атмосферное давление - приведенное к уровню моря атмосферное давление.
  • Po - Атмосферное давление - измеренное на уровне метеостанции атмосферное давление.
  • Tmin - Минимальная температура - минимум температуры воздуха на высоте 2 м над землей.
  • Tmax - Максимальная температура - максимум температуры воздуха на высоте 2 м над землей.
  • R - Количество осадков - Количество выпавших осадков за период времени, мм. При наведении курсора мыши на число - период времени, за который выпало указанное количество осадков.
  • R24 - Количество осадков - Количество выпавших осадков за 24 часа, мм.
  • S - Снежный покров - Высота снежного покрова, см. При наведении курсора мыши на число - состояние снежного покрова и степень покрытия местности в баллах.